Other Public Products
Issued by NWS Grand Forks, ND

Home | Current Version | Previous Version | Graphics & Text | Print | Product List | Glossary On
Versions: 1 2 3 4 5 6 7 8 9 10 11 12 13 14 15 16 17 18 19 20 21 22 23 24 25 26 27 28 29 30 31 32 33 34 35 36 37 38 39 40 41 42 43 44 45 46 47 48 49 50
000
FPUS83 KFGF 300931
OPUFGF
PRAIRIE TO PINES WEATHER ROUNDUP
NATIONAL WEATHER SERVICE EASTERN NORTH DAKOTA/GRAND FORKS ND
400 AM CDT THU OCT 30 2014

 **SATELLITE DATA USED TO AUGMENT SKY COVER AT AUTOMATED STATIONS**
 *****  WEATHER ACROSS EASTERN NORTH DAKOTA  *****

CITY           SKY/WX    TMP DP  RH WIND       PRES   REMARKS
GRAND FORKS    CLOUDY    37  34  89 NE9       30.03R
GRAND FORKS AF CLOUDY    36  36 100 NE6       30.05R
GRAND CITY NWS   N/A     36 N/A N/A NE7         N/A
BUXTON           N/A     38  38  99 NE3         N/A
DEVILS LAKE    CLEAR     30  21  69 N9        30.04R WCI  22
FARGO          LGT RAIN  40  37  89 SE5       30.00R FOG
WAHPETON ARPT  CLOUDY    37  34  87 SE6       30.00R
$$

 *****  WEATHER ACROSS CENTRAL AND WESTERN NORTH DAKOTA  *****

CITY           SKY/WX    TMP DP  RH WIND       PRES   REMARKS
JAMESTOWN      CLEAR     36  34  92 NW8       29.98R
BISMARCK       CLEAR     37  35  92 NW8       30.06R
MINOT          CLEAR     29  26  89 NW9       30.12R WCI  20
MINOT AFB      CLEAR     30  29  99 N12       30.12R WCI  20
GARRISON         N/A     32  30  92 NW12      30.09R WCI  23
WILLISTON      CLOUDY    37  33  85 N12       30.18R
DICKINSON      CLEAR     33  31  92 W8        30.11R
HETTINGER      CLEAR     34  31  88 NW10      30.13R
$$

 *****  OTHER OBSERVATIONS NORTHEAST NORTH DAKOTA  *****

CITY           SKY/WX    TMP DP  RH WIND       PRES   REMARKS
WALHALLA       FAIR      30  30 100 N8        30.11R WCI  23
LANGDON        FAIR      27  25  93 N10       30.07R WCI  17
CAVALIER       PTSUNNY   30  27  86 N9        30.09R WCI  22
GRAFTON        FAIR      28  28 100 NE7       30.06R WCI  21
CANDO          FAIR      27  25  93 N12       30.09R WCI  16
FORT TOTTEN      N/A     33  30  90 NE5       29.95S
ROLLA          PTSUNNY   25  25 100 N12       30.12R WCI  14
RUGBY          FAIR      27  25  93 N7        30.11R WCI  19
 ***** THE ABOVE OBSERVATIONS ARE NON NWS ARE NOT QUALITY
        CONTROLLED AND MAY MIS-REPORT RAIN FOR SNOW...
$$

 *****  OTHER OBSERVATIONS SOUTHEAST NORTH DAKOTA *****

CITY           SKY/WX    TMP DP  RH WIND       PRES   REMARKS
COOPERSTOWN    NOT AVBL
VALLEY CITY    CLOUDY    37  37 100 CALM      29.98R
OAKES            N/A     37  37 100 W3        29.98R
GWINNER        CLOUDY    39  39 100 CALM      29.99R
BUFFALO        NOT AVBL
WYNDMERE       NOT AVBL
 ***** THE ABOVE OBSERVATIONS ARE NON NWS ARE NOT QUALITY
       CONTROLLED AND MAY MIS-REPORT RAIN FOR SNOW...
$$

  *****  WEATHER ACROSS NORTHERN MINNESOTA  *****

CITY           SKY/WX    TMP DP  RH WIND       PRES   REMARKS
FLAG ISLAND    CLOUDY    36  34  93 NW13      30.05S
WARROAD        CLOUDY    34  28  80 CALM      30.07R
ROSEAU         MOCLDY    32  27  80 CALM      30.07R
HALLOCK        MOCLDY    32  30  93 NE6       30.08R
THF RVR FALLS  CLOUDY    36  32  87 E5        30.04S
HALSTAD          N/A     39  37  95 E6          N/A
FOSSTON        CLOUDY    34  34 100 CALM      30.03R
BAUDETTE       CLOUDY    34  30  85 NW3       30.05S
WASKISH        CLOUDY    34  32  93 CALM      30.05R
CROOKSTON      MIX PCPN  37  36  93 E6        30.04R
$$
  *****  WEATHER ACROSS CENTRAL AND WEST MINNESOTA  *****

CITY           SKY/WX    TMP DP  RH WIND       PRES   REMARKS
BEMIDJI        CLOUDY    34  31  90 E3        30.02S
PARK RAPIDS    CLOUDY    35  33  92 SE5       30.01S
WADENA         DRIZZLE   36  34  93 E5        30.00S
DETROIT LAKES  PTCLDY    36  34  93 SE5       30.00S
MOORHEAD       LGT RAIN  39  39 100 S3        30.01R
FERGUS FALLS   CLOUDY    39  36  87 S7        30.01S
ELBOW LAKE     CLOUDY    38  36  92 SE6       29.99S
MORRIS MN      CLOUDY    39  36  87 SE9       29.98F
STAPLES        CLOUDY    36  34  93 CALM      30.02R
WHEATON        CLOUDY    36  34  93 S5        30.01S
$$
  *****  WEATHER ELSEWHERE ACROSS MINNESOTA  *****

CITY           SKY/WX    TMP DP  RH WIND       PRES   REMARKS
DULUTH         CLOUDY    36  32  85 SW5       30.03F
INTRNTL FALLS  LGT RAIN  34  33  96 CALM      30.04R
ELY            CLOUDY    34  32  93 W6        30.02S
CLOQUET        MOCLDY    36  32  87 CALM      30.03F
BRAINERD       LGT RAIN  35  32  88 CALM      30.03F
HIBBING        CLOUDY    35  32  88 CALM      30.04R
ALEXANDRIA     CLOUDY    38  34  85 SE6       30.01F
SAINT CLOUD    CLOUDY    38  34  85 E3        30.04F
MINNEAPOLIS    CLOUDY    38  32  79 E3        30.05F
$$

  *****  WEATHER ACROSS SOUTH DAKOTA  *****

CITY           SKY/WX    TMP DP  RH WIND       PRES   REMARKS
SIOUX FALLS    CLEAR     44  32  62 S6        29.96F
BROOKINGS      NOT AVBL
WATERTOWN      CLOUDY    43  34  70 CALM      29.97R
HURON          CLEAR     39  30  70 NW8       29.98R
SISSETON         N/A     38  38 100 S7        29.98S
ABERDEEN       PTCLDY    38  34  85 CALM      29.98S
MITCHELL       CLEAR     41  33  73 W8        29.99R
PIERRE         CLEAR     48  39  71 NW16      30.04R
MOBRIDGE       CLEAR     42  37  82 NW10      30.02R
RAPID CITY     CLEAR     42  32  67 NW12      30.14S
$$

  *****  SOME WEATHER IN NEARBY STATES *****

CITY           SKY/WX    TMP DP  RH WIND       PRES   REMARKS
GLASGOW MT     MOCLDY    30  28  92 N7        30.22S WCI  23
GREAT FALLS MT CLEAR     38  33  82 S10       30.22R
CHEYENNE WY    CLOUDY    42  24  49 NW9       30.29R
SCOTTSBLUFF NE CLEAR     35  28  75 NW8       30.24R
OMAHA NE       MOCLDY    47  32  56 S9        30.01F
DES MOINES IA  CLOUDY    44  34  67 SE6       30.06F
DAVENPORT IA   CLEAR     33  28  81 SE3       30.12F
CHICAGO IL     PTCLDY    36  31  82 CALM      30.13S
EAU CLAIRE WI  CLOUDY    35  32  88 CALM      30.06F
LA CROSSE WI   MOCLDY    37  33  85 SE5       30.08F
$$

  *****  SOME NATIONAL WEATHER *****

CITY           SKY/WX    TMP DP  RH WIND       PRES   REMARKS
LA GUARDIA NY  PTCLDY    52  46  80 NW8       29.94S
RALEIGH NC     PTCLDY    53  46  77 E6        30.01R
ATLANTA GA     CLEAR     48  44  86 NW10      30.04R
NEW ORLEANS LA PTCLDY    66  47  50 NE16      30.06S
OKLAHOMA CITY  CLEAR     48  38  68 S6        30.10S
ALBUQUERQUE NM PTCLDY    53  14  21 N10       30.27S
SALT LAKE CITY CLEAR     42  30  62 S6        30.26F
LOS ANGELES CA MOCLDY    66  64  93 CALM      29.99F
BOISE ID       CLOUDY    52  41  66 S3        30.17F
SEATTLE WA     CLOUDY    54  49  83 E3        30.00F
$$

*** WEATHER ACROSS MANITOBA...SASKATCHEWAN AND ONTARIO ***
                ***ONTARIO***

CITY           SKY/WX    TMP DP  RH WIND       PRES   REMARKS
GERALDTON      PTCLDY    27  27 100 W3        30.01S
THUNDER BAY    LGT RAIN  37  36  93 W2        30.03F
SIOUX LOOKOUT  NOT AVBL
TORONTO        MOCLDY    41  36  81 W7        30.02S
BIG TROUT LK   FLURRIES  27  23  86 NW6       29.99S WCI  20
PICKLE LAKE    NOT AVBL
DRYDEN         CLOUDY    34  34 100 NW3       30.02R
KENORA         CLOUDY    34  32  93 N5        30.04S
$$
                *** MANITOBA***

CITY           SKY/WX    TMP DP  RH WIND       PRES   REMARKS
BRANDON        CLOUDY    32  28  86 N10       30.17R WCI  24
DAUPHIN        CLOUDY    30  28  93 N15       30.23R WCI  19
ISLAND LAKE    FLURRIES  27  21  80 N10       30.10R WCI  17
PILOT MOUND      N/A     28  28 100 N12         N/A  WCI  18
THE PAS        CLOUDY    34  23  64 NW14      30.27R WCI  24
THOMPSON       FLURRIES N/A N/A N/A NW13G18     N/A
WINNIPEG       CLOUDY    34  32  93 NW5       30.12R
LYNN LAKE      CLOUDY    19  16  86 N8        30.30R WCI   9
CHURCHILL      FLURRIES  25  23  93 NW18G25   30.16R WCI  11
GILLAM         LGT SNOW  25  21  86 N14       30.11R VSB 3/4 WCI  13
$$
                ***SASKATCHEWAN***

CITY           SKY/WX    TMP DP  RH WIND       PRES   REMARKS
ESTEVAN        CLOUDY    36  32  87 N6        30.17R
KINDERSLEY     CLOUDY    32  28  86 NE9       30.26R WCI  24
LLOYDMINSTER   CLOUDY    32  30  93 E5        30.28
PRINCE ALBERT  CLOUDY    30  23  74 E10       30.34R WCI  21
REGINA         CLOUDY    34  30  86 N8        30.24R
YORKTON        CLOUDY    30  28  93 N14G20    30.24R WCI  20



USA.gov is the U.S. government's official web portal to all federal, state and local government web resources and services.